Погода в Ильиной Горе

Россия / Новгородская область     57°34′52″N   32°39′09″E
темп.,
°C
ветер,
м/с
пор.,
м/с
влажн.,
%
обл.,
%
осадки,
мм/ч
давл.,
гПа
погр.,
м
8 мая, сб
сб800:00+6юв3877100 0.0 1006252
03:00+6ююв51289100 0.3 10041149
06:00+6ююв51195100 1.0 10031183
09:00+6зюз3794100 3.1 1004647
12:00+4зсз3695100 0.1 1006580
15:00+7зсз4574100 0.3 10061229
18:00+8сз4759100 0.1 10061592
21:00+3сз4108097 0.2 1008545
9 мая, вс
вс900:00+3сз41088100 0.1 1009617
03:00+2сз51194100 0.1 1011715
06:00+1зсз4109247 0.0 1014460
09:00+5зсз47661 0.0 1015662
12:00+9зсз584497 0.0 10172194
15:00+11сз58355 0.0 10192196
18:00+11сз37438 0.0 10202105
21:00+5юз116811 0.0 102210
10 мая, пн
пн1000:00+4ююз227619 0.0 102427
03:00+3ю3876100 0.0 1025163
06:00+5ю4126689 0.0 1025385
09:00+8ююз41166100 0.0 1026563
12:00+13ююз5953100 0.0 1026921
15:00+16юз5750100 0.0 10251192
18:00+16юз365981 0.0 10261167
21:00+10ю388341 0.0 1027134
11 мая, вт
вт1100:00+8ю310886 0.0 1028193
03:00+7ю389356 0.0 1029138
06:00+8ю378760 0.0 1029156
09:00+14ю476053 0.0 1029507
12:00+18ю454553 0.0 10291319
15:00+20ююв454278 0.0 10281645
18:00+19ююв355111 0.0 10271187
21:00+12юв38785 0.0 1027159
12 мая, ср
ср1200:00+10юв39885 0.0 1028176
03:00+8юв26895 0.0 102799
06:00+8юв37820 0.0 1027149
09:00+15юв35520 0.0 1026505
12:00+20вюв45380 0.0 10251142
15:00+22вюв46415 0.0 10231622
18:00+20вюв485392 0.0 10221453
21:00+14вюв24825 0.0 102572